Hourly Data Report for September 23, 2017

All times are specified in Local Standard Time (LST). Add 1 hour to adjust for Daylight Saving Time where and when it is observed.

FREDERICTON
NEW BRUNSWICK

45°52'08.000" N
66°32'14.000" W
20.70 m
8101505
71700
YFC

Related Data

No related data is available for this station

Download Data

Hourly Data (September 2017)
Hourly Data Report for September 23, 2017
Temp Definition
°C
Dew Point Temp Definition
°C
Rel Hum Definition
%
Wind Dir Definition
10's deg

Wind Spd Definition
km/h
Visibility Definition
km
Stn Press Definition
kPa
Hmdx Definition


Wind Chill Definition


Weather Definition


TIME
00:00 Legend Double Dagger 5.9 5.1 95 LegendMM 4 16.1 101.64     LegendNANA
01:00 Legend Double Dagger 5.7 5.1 96 LegendMM 4 16.1 101.64     LegendNANA
02:00 Legend Double Dagger 4.3 3.9 97 23 4 16.1 101.59     LegendNANA
03:00 Legend Double Dagger 3.8 3.4 98 21 8 16.1 101.52     LegendNANA
04:00 Legend Double Dagger 3.9 3.6 98 19 8 16.1 101.46     LegendNANA
05:00 Legend Double Dagger 3.4 3.3 99 23 5 16.1 101.43     LegendNANA
06:00 Legend Double Dagger 1.8 1.5 98 19 5 16.1 101.41     LegendNANA
07:00 Legend Double Dagger 2.9 2.2 95 18 8 16.1 101.42     LegendNANA
08:00 Legend Double Dagger 8.0 7.1 94   0 16.1 101.39     LegendNANA
09:00 Legend Double Dagger 11.9 8.3 78 20 9 16.1 101.36     LegendNANA
10:00 Legend Double Dagger 16.6 9.7 64 22 9 16.1 101.37     LegendNANA
11:00 Legend Double Dagger 21.2 11.4 53 LegendMM 8 16.1 101.32     LegendNANA
12:00 Legend Double Dagger 25.9 6.6 29 22 17 16.1 101.25 26   LegendNANA
13:00 Legend Double Dagger 27.9 7.0 26 22 18 16.1 101.17 28   LegendNANA
14:00 Legend Double Dagger 29.3 9.8 29 29 9 16.1 101.10 30   LegendNANA
15:00 Legend Double Dagger 29.1 11.6 33 27 9 16.1 101.05 31   LegendNANA
16:00 Legend Double Dagger 29.2 14.6 40 29 15 16.1 101.03 33   LegendNANA
17:00 Legend Double Dagger 28.4 15.3 44 29 13 16.1 101.07 33   LegendNANA
18:00 Legend Double Dagger 26.1 16.0 53 28 8 16.1 101.12 31   LegendNANA
19:00 Legend Double Dagger 21.7 16.9 74 30 4 16.1 101.17 27   LegendNANA
20:00 Legend Double Dagger 19.8 16.3 80   0 16.1 101.23     LegendNANA
21:00 Legend Double Dagger 20.2 16.3 78 34 5 16.1 101.28 25   LegendNANA
22:00 Legend Double Dagger 17.9 15.6 86 24 5 16.1 101.34     LegendNANA
23:00 Legend Double Dagger 19.5 15.3 76 4 15 16.1 101.36     LegendNANA

Notes on Data Quality.

Legend

  • E = Estimated
  • M = Missing
  • NA = Not Available
  • ‡ = Partner data that is not subject to review by the National Climate Archives
Date modified: